User: anonymous   Login
Location: Unspecified
(0.0000°N, 0.0000°E)
Time: 04:06:06
(UTC+02:00)
Language:

Iridium 15 - Orbit

View from above orbital plane
View from above orbital plane
View from above satellite
View from above satellite

Ground track
Ground track

The orbit data is extracted from the following two-line orbital elements,

1 24869U 97034A   17289.26509962  .00000129  00000-0  35604-4 0  9992
2 24869  86.4185 331.4318 0002002  86.1338 274.0089 14.38608969 61347
Epoch (UTC): 16 October 2017 06:21:44
Eccentricity: 0.0002002
inclination: 86.4185°
perigee height: 761 km
apogee height: 764 km
right ascension of ascending node: 331.4318°
argument of perigee: 86.1338°
revolutions per day: 14.38608969
mean anomaly at epoch: 274.0089°
orbit number at epoch: 6134

The dashed part of the orbit path shows where the satellite is in the earth's shadow,  

DLR